Location: Tel Aviv-Yafo
(32.0678°N, 34.7647°E)
Time: 00:39:32
(UTC+03:00)

Daily predictions for brighter satellites

Satellite Brightness Start Highest point End
(mag) Time Altitude Azimuth Time Altitude Azimuth Time Altitude Azimuth
Cosmos 2333 Rocket 4.3 04:01:58 18° NNE 04:01:58 18° NNE 04:03:20 10° NNE
ATLAS 2AS CENTAUR R/B 3.0 04:06:56 77° NNE 04:06:56 77° NNE 04:14:22 10° NNE
NOSS 0 Rocket 4.2 04:15:29 63° ENE 04:15:29 63° ENE 04:20:47 10° NNE
USA 238 DEB 4.4 04:13:36 26° N 04:17:47 55° ENE 04:25:03 10° SE
USA 238 4.4 04:13:39 25° N 04:17:52 54° ENE 04:25:08 10° SE
IDEFIX/ARIANE 42P 4.0 04:14:53 10° NNE 04:17:27 30° NNE 04:17:27 30° NNE
Cosmos 2219 Rocket 4.1 04:26:33 18° N 04:26:33 18° N 04:28:02 10° N
Cosmos 2074 Rocket 4.5 04:25:56 10° S 04:32:02 59° E 04:38:07 10° NNE
Cosmos 2237 Rocket 2.2 04:32:29 78° ESE 04:32:31 78° ESE 04:38:13 10° NNE
NOSS 3-2 (A) 4.3 04:35:34 12° NNW 04:42:57 70° ENE 04:51:29 10° SE
Cosmos 921 Rocket 3.8 04:44:01 31° NNE 04:45:37 47° ENE 04:49:40 10° SSE
MSX 3.7 04:41:58 10° NNE 04:47:42 90° NNW 04:51:39 21° SSW
Cosmos 1980 3.6 04:49:47 68° WNW 04:49:47 68° WNW 04:55:22 10° NNE
Cosmos 2181 Rocket 3.8 04:44:01 10° N 04:50:19 73° W 04:56:29 10° S
Cosmos 1190 Rocket 3.9 04:49:12 56° SSW 04:50:23 89° E 04:55:42 10° NNE
Cosmos 407 Rocket 3.3 04:51:25 77° WNW 04:51:25 77° WNW 04:56:32 10° NNE
CZ-2C R/B 2.8 04:50:57 10° NNE 04:56:08 68° ESE 05:01:11 10° S
Cosmos 292 Rocket 4.3 04:52:33 10° N 04:57:17 58° ENE 05:02:01 10° SSE
Cosmos 1758 3.9 04:54:10 10° N 04:58:07 57° E 05:02:05 10° SSE
NOSS 3-2 (C) 4.4 04:59:00 10° NNW 05:06:52 68° ENE 05:15:23 10° SE
Cosmos 1707 2.6 05:07:11 56° SSW 05:07:57 86° W 05:11:54 10° N
Delta 142 4.1 05:08:09 41° SSW 05:08:34 42° SSW 05:12:34 10° ESE
Meteor 1-31 Rocket 2.8 05:06:10 10° NNE 05:09:57 74° ESE 05:13:43 10° S
RESURS DK-1 2.8 05:08:05 14° S 05:11:29 61° ESE 05:15:34 10° NNE
USA 32 4.1 05:08:47 24° SSW 05:11:45 53° W 05:16:52 10° N
USA 234 3.5 05:09:02 10° SE 05:15:29 68° NE 05:21:59 10° NW
Cosmos 1470 2.5 05:12:55 10° N 05:16:49 80° W 05:20:40 10° S
NOSS 3-4 (A) 3.9 05:16:08 35° WNW 05:17:11 37° NW 05:22:56 10° NNE
NOSS 3-4 (C) 3.9 05:16:09 35° WNW 05:17:17 38° NW 05:23:02 10° NNE
PSLV R/B 3.8 05:21:27 36° NNE 05:21:27 36° NNE 05:23:18 10° NE
GP-B 4.4 05:18:15 10° SSE 05:22:25 41° E 05:26:35 10° NNE
Meteor 1-4 Rocket 2.3 05:21:59 16° SSW 05:24:39 69° W 05:28:08 10° N
SL-16 R/B 2.3 05:20:01 10° SSW 05:25:39 80° ESE 05:31:20 10° NNE
Cosmos 1484 Rocket 3.9 05:22:53 10° NNE 05:26:34 45° E 05:30:17 10° S
Cosmos 1954 Rocket 3.9 05:23:04 10° SSW 05:28:18 73° WNW 05:33:33 10° NNE
Delta 7925 Rocket 4.3 05:26:02 22° WSW 05:29:41 46° S 05:34:42 10° ESE
CZ-4B R/B 3.9 05:26:33 10° N 05:30:32 59° WNW 05:34:41 10° SSW
Cosmos 1606 Rocket 3.7 05:28:52 10° N 05:33:11 72° E 05:37:28 10° SSE
BREEZE-M DEB (TANK) 3.9 05:29:08 23° WSW 05:33:23 49° NW 05:36:44 10° NE
Cosmos 1140 Rocket 3.8 05:30:54 14° SW 05:35:02 43° WNW 05:39:57 10° N
Cosmos 2154 Rocket 3.9 05:29:27 10° SSW 05:35:36 70° W 05:41:48 10° N
Celestis-02/Orion 38 4.5 05:33:12 10° SSE 05:38:17 69° WSW 05:43:31 10° NNW
ATLAS 3B R/B 3.0 05:34:04 10° NNW 05:40:48 70° ENE 05:47:44 10° SE
SL-8 R/B 4.3 05:37:01 10° SSW 05:41:41 55° SE 05:46:22 10° ENE
Cosmos 389 Rocket 4.2 05:43:48 17° NW 05:43:48 17° NW 05:45:00 10° NNW
Cosmos 2278 Rocket 2.2 05:37:29 10° NNW 05:43:02 57° WSW 05:48:32 10° S
Okean 1-7 Rocket 3.5 05:40:29 10° SSW 05:44:52 72° W 05:49:21 10° N
H-2A R/B 4.1 05:43:26 10° NNW 05:45:22 17° NW 05:45:22 17° NW
CENTAUR R/B 3.3 05:44:21 10° NNW 05:52:46 88° WSW 06:01:30 10° SSE
COSMO-SKYMED 1 3.1 05:50:17 10° SSE 05:54:32 63° ENE 05:58:50 10° N
Meteor 2-5 Rocket 4.0 05:51:21 10° S 05:57:04 80° E 06:02:57 10° N
ATLAS 2AS CENTAUR R/B 4.3 05:54:25 14° WNW 05:58:20 20° NW 06:03:54 10° N
IDEFIX/ARIANE 42P 4.5 05:58:03 10° NW 05:58:15 10° NW 05:58:15 10° NW
IUS-9 SRM-1 3.5 05:58:05 13° WSW 06:00:03 34° S 06:06:23 10° ESE
Milstar 3 Cent rocket 2.7 05:55:16 10° WSW 06:00:39 46° S 06:05:04 10° E
Cosmos 2341 Rocket 4.0 05:54:39 10° S 06:00:54 76° W 06:07:08 10° N
Nadezhda 3 Rocket 4.0 05:56:19 10° NNW 06:02:34 61° W 06:08:45 10° S
Cosmos 1741 Rocket 4.0 06:01:38 10° SSW 06:06:57 86° WNW 06:12:18 10° NNE
Cosmos 1437 Rocket 2.8 06:03:18 10° SSW 06:06:58 48° W 06:10:38 10° N
Cosmos 1356 3.4 06:07:51 10° NNW 06:11:16 56° W 06:14:37 10° S
KORONAS-FOTON 3.7 06:09:05 10° SSW 06:12:50 72° W 06:16:36 10° N
Cosmos 1726 Rocket 3.8 06:09:57 10° NNW 06:14:02 43° W 06:18:06 10° SSW
Cosmos 2228 3.4 06:10:20 10° NNW 06:14:17 39° W 06:18:13 10° SSW
CZ-3C R/B 3.7 06:11:02 10° SSW 06:14:24 17° SSE 06:22:14 10° SE
Cosmos 2237 Rocket 3.9 06:14:51 10° W 06:17:12 12° NW 06:19:31 10° NNW
CZ-4B R/B 4.5 06:16:03 10° NW 06:18:07 14° WNW 06:20:09 10° W
SeaSat 1 3.2 06:13:57 10° NNE 06:18:48 59° ESE 06:23:39 10° SSW
Milstar 3 3.3 06:15:13 10° WSW 06:21:51 58° SSE 06:29:21 10° E
ALOS 2.2 06:17:26 10° N 06:22:04 68° WNW 06:26:41 10° SSW
Cosmos 1602 Rocket 3.8 06:19:37 10° S 06:23:56 77° E 06:28:15 10° N
Okean O Rocket 1.7 06:21:46 10° N 06:26:05 58° WNW 06:30:20 10° SSW
NOAA 6 4.0 06:22:01 10° N 06:27:10 72° WNW 06:32:17 10° SSW
